Regional Weather Roundup
Issued by NWS

Home | Current Version | Previous Version | Text Only | Print | Product List | Glossary On
Versions: 1 2 3 4 5 6 7 8 9 10 11 12 13 14 15 16 17 18 19 20 21 22 23 24 25 26 27 28 29 30 31 32 33 34 35 36 37 38 39 40 41 42 43 44 45 46 47 48 49 50
000
ASUS43 KMKX 010021
RWRWI

WISCONSIN REGIONAL WEATHER ROUNDUP
NATIONAL WEATHER SERVICE MILWAUKEE/SULLIVAN WI
700 PM CDT TUE JUN 30 2015

NOTE: "FAIR" INDICATES FEW OR NO CLOUDS BELOW 12,000 FEET WITH NO
SIGNIFICANT WEATHER AND/OR OBSTRUCTIONS TO VISIBILITY.

WIZ001-002-006>008-014>016-023>028-010100-
NORTHWEST WISCONSIN

CITY           SKY/WX    TMP DP  RH WIND       PRES   REMARKS
SUPERIOR ARPT  PTSUNNY   58  51  77 E6        29.96R
6HR MIN TEMP:  58; 6HR MAX TEMP:  63;

ASHLAND        MOSUNNY   56  50  80 N7        29.98S
6HR MIN TEMP:  56; 6HR MAX TEMP:  62;

HAYWARD        MOSUNNY   63  50  62 NE8       29.96F
6HR MIN TEMP:  63; 6HR MAX TEMP:  65;

SIREN          MOSUNNY   68  52  57 NE5       29.95R
6HR MIN TEMP:  65; 6HR MAX TEMP:  71;

CUMBERLAND     PTSUNNY   64  52  63 NE9       29.95S
RICE LAKE      PTSUNNY   67  49  51 N10       29.95S
6HR MIN TEMP:  67; 6HR MAX TEMP:  70;

CHETEK         PTSUNNY   67  52  57 N7        29.93S
6HR MIN TEMP:  67; 6HR MAX TEMP:  70;

LADYSMITH      PTSUNNY   64  49  57 N8        29.97R
6HR MIN TEMP:  64; 6HR MAX TEMP:  69;

EAU CLAIRE     PTSUNNY   70  50  49 NE9       29.91S
6HR MIN TEMP:  70; 6HR MAX TEMP:  75;

MENOMONIE      MOSUNNY   72  51  47 N9        29.92S
6HR MIN TEMP:  69; 6HR MAX TEMP:  74;

NEW RICHMOND   MOSUNNY   69  53  55 NE7       29.94R
6HR MIN TEMP:  69; 6HR MAX TEMP:  72;

OSCEOLA        SUNNY     71  55  55 N6        29.96R
6HR MIN TEMP:  69; 6HR MAX TEMP:  73;

$$

WIZ003>005-009-010-017-018-010100-
NORTH CENTRAL WISCONSIN

CITY           SKY/WX    TMP DP  RH WIND       PRES   REMARKS
MANITOWISH WTR SUNNY     58  44  60 NE8       29.97R
6HR MIN TEMP:  56; 6HR MAX TEMP:  61;

ARBOR VITAE    SUNNY     59  46  62 N8        29.96R
6HR MIN TEMP:  57; 6HR MAX TEMP:  62;

WOODRUFF       SUNNY     59  46  62 N8        29.96R
6HR MIN TEMP:  57; 6HR MAX TEMP:  62;

RHINELANDER    SUNNY     60  44  55 N7        29.95R
6HR MIN TEMP:  59; 6HR MAX TEMP:  63;

EAGLE RIVER    SUNNY     57  44  60 N8        29.95R
LAND O LAKES   SUNNY     58  46  66 N12       29.96S
6HR MIN TEMP:  54; 6HR MAX TEMP:  59;

PHILLIPS       MOSUNNY   60  48  63 N6        29.95R
6HR MIN TEMP:  60; 6HR MAX TEMP:  65;

TOMAHAWK       MOSUNNY   61  45  56 N9        29.95R
6HR MIN TEMP:  60; 6HR MAX TEMP:  65;

MEDFORD        PTSUNNY   64  49  59 N8        29.93R
6HR MIN TEMP:  62; 6HR MAX TEMP:  67;

MERRILL        MOSUNNY   63  45  52 N7        29.94R
6HR MIN TEMP:  62; 6HR MAX TEMP:  65;

$$

WIZ029-030-035-036-043>047-010100-
CENTRAL WISCONSIN

CITY           SKY/WX    TMP DP  RH WIND       PRES   REMARKS
WAUSAU         MOSUNNY   66  49  54 N9        29.90R
6HR MIN TEMP:  65; 6HR MAX TEMP:  68;

MOSINEE        MOSUNNY   64  52  63 NW12      29.92
MARSHFIELD     PTSUNNY   67  51  56 N6        29.91R
6HR MIN TEMP:  66; 6HR MAX TEMP:  71;

STEVENS POINT  CLOUDY    64  51  64 NW9       29.91R
6HR MIN TEMP:  64; 6HR MAX TEMP:  69;

WAUPACA        CLOUDY    69  56  61 N5        29.88S
6HR MIN TEMP:  69; 6HR MAX TEMP:  75;

WAUTOMA        MOSUNNY   70  56  61 N8        29.89R
6HR MIN TEMP:  70; 6HR MAX TEMP:  75;

WISC RAPIDS    PTSUNNY   67  52  58 N9        29.91R
6HR MIN TEMP:  67; 6HR MAX TEMP:  74;

CAMP DOUGLAS   PTSUNNY   66  61  82 N10       29.90R
$$

WIZ011>013-019>022-031-037>040-048>050-010100-
NORTHEAST WISCONSIN

CITY           SKY/WX    TMP DP  RH WIND       PRES   REMARKS
ANTIGO         SUNNY     60  49  66 N14       29.93R
SHAWANO        CLOUDY    66  54  65 NE10      29.90R
6HR MIN TEMP:  66; 6HR MAX TEMP:  72;

OCONTO         CLOUDY    61  52  71 N9        29.89R
6HR MIN TEMP:  61; 6HR MAX TEMP:  68;

STURGEON BAY   CLOUDY    61  50  67 N14       29.92R
6HR MIN TEMP:  61; 6HR MAX TEMP:  63;

GREEN BAY      CLOUDY    66  54  65 N15       29.89R
6HR MIN TEMP:  66; 6HR MAX TEMP:  71;

MANITOWOC      CLOUDY    60  56  86 MISG      29.89R
6HR MIN TEMP:  60; 6HR MAX TEMP:  68;

APPLETON       PTSUNNY   66  54  63 N12       29.88R
CLINTONVILLE   CLOUDY    66  54  63 NE6       29.88R
OSHKOSH        MOSUNNY   70  56  61 N13       29.86R
6HR MIN TEMP:  69; 6HR MAX TEMP:  74;

$$

WIZ032>034-041-042-053>061-010100-
SOUTHWEST WISCONSIN

CITY           SKY/WX    TMP DP  RH WIND       PRES   REMARKS
LA CROSSE      MOSUNNY   75  53  46 N7        29.88S
6HR MIN TEMP:  69; 6HR MAX TEMP:  77;

SPARTA         PTSUNNY   71  52  50 N7        29.90S
6HR MIN TEMP:  70; 6HR MAX TEMP:  76;

VIROQUA        MOSUNNY   70  55  58 N7        29.90S
6HR MIN TEMP:  68; 6HR MAX TEMP:  74;

BOSCOBEL       PTSUNNY   75  58  55 NW7       29.87S
6HR MIN TEMP:  73; 6HR MAX TEMP:  79;

PRAIRIE DU CHI MOSUNNY   73  57  56 N5        29.87S
6HR MIN TEMP:  71; 6HR MAX TEMP:  74;

PLATTEVILLE    MOSUNNY   73  59  63 N7        29.87S
6HR MIN TEMP:  71; 6HR MAX TEMP:  76;

$$

WIZ056-057-062-063-064-067-068-010100-
SOUTH CENTRAL WISCONSIN

CITY           SKY/WX    TMP DP  RH WIND       PRES   REMARKS
REEDSBURG      MOSUNNY   70  55  58 N7        29.87S
6HR MIN TEMP:  70; 6HR MAX TEMP:  75;

BARABOO/DELLS  MOSUNNY   71  52  50 N7        29.88R
6HR MIN TEMP:  71; 6HR MAX TEMP:  76;

LONE ROCK      PTSUNNY   74  58  57 N9        29.87R
6HR MIN TEMP:  72; 6HR MAX TEMP:  77;

MINERAL POINT  MOSUNNY   72  59  64 NW8       29.88S
MADISON        PTSUNNY   73  58  59 N7        29.85S
6HR MIN TEMP:  72; 6HR MAX TEMP:  77;

MIDDLETON      MOSUNNY   73  56  53 N7        29.87R
6HR MIN TEMP:  72; 6HR MAX TEMP:  78;

WATERTOWN      MOSUNNY   72  59  64 N7        29.85R
6HR MIN TEMP:  71; 6HR MAX TEMP:  76;

MONROE         SUNNY     73  59  60 NW3       29.86S
JANESVILLE     MOSUNNY   75  59  57 NW6       29.84S
$$

WIZ051-052-058>065-066-070>072-010100-
SOUTHEAST WISCONSIN

CITY           SKY/WX    TMP DP  RH WIND       PRES   REMARKS
MILWAUKEE      PTSUNNY   59  53  80 E6        29.87R
6HR MIN TEMP:  59; 6HR MAX TEMP:  68;

WAUKESHA       MOSUNNY   64  57  77 E8        29.87R
MILWAUKEE/TIMM MOSUNNY   63  54  72 E6        29.88R
RACINE         PTSUNNY   59  53  80 N5        29.88S
6HR MIN TEMP:  59; 6HR MAX TEMP:  75;

BURLINGTON     MOSUNNY   65  58  80 E9        29.86R
6HR MIN TEMP:  65; 6HR MAX TEMP:  74;

KENOSHA        MOSUNNY   62  55  77 E9        29.88R
6HR MIN TEMP:  62; 6HR MAX TEMP:  76;

FOND DU LAC    PTSUNNY   69  57  65 N8        29.87R
6HR MIN TEMP:  69; 6HR MAX TEMP:  74;

SHEBOYGAN      CLOUDY    58  53  84 NE9       29.88R
6HR MIN TEMP:  58; 6HR MAX TEMP:  70;

WEST BEND      MOSUNNY   64  55  72 E7        29.86R
JUNEAU         PTSUNNY   69  59  69 N7        29.87R
6HR MIN TEMP:  68; 6HR MAX TEMP:  74;

$$

LSZ147-162-010100-
LAKE SUPERIOR

STATION/POSITION TIME  TEMP    WIND        PRES    WAVE
                       AIR SEA DIR/SP/G            HT/PER
                 (UTC) (F)     (DEG/KT/KT) (MB)    (FT/S)
W MID LAKE BUOY  2350   44 39  270/  2/  4 1015.8R   1/ 5
DEVILS ISLAND    0000   56     130/  5/  7 1015.4F
SAXON HARBOR     2340   56        CALM     1015.2R
$$

LMZ867-665-643>646-010100-
LAKE MICHIGAN

STATION/POSITION TIME  TEMP    WIND        PRES    WAVE
                       AIR SEA DIR/SP/G            HT/PER
                 (UTC) (F)     (DEG/KT/KT) (MB)    (FT/S)
CHAMBERS ISLAND  2300   61     320/ 18/ 20 1012.2R



USA.gov is the U.S. government's official web portal to all federal, state and local government web resources and services.